Tracking 17143 objects as of 30-June-2015
HD Live streaming from Space Station

COSMOS 1481 DEB

Track COSMOS 1481 DEB now!
COSMOS 1481 DEB is classified as:


NORAD ID: 14192
Int'l Code: 1983-070E
Perigee: 1,882.4 km
Apogee: 38,046.9 km
Inclination: 67.2 °
Period: 708.9 minutes
Semi major axis: 26335 km
RCS: 2.531 m2 (large)
Launch date: July 8, 1983
Source: Commonwealth of Independent States (former USSR) (CIS)

Note: This is SATELLITE DEBRIS
Your satellite tracking list
Your tracking list is empty





NASA's NSSDC Master Catalog

Two Line Element Set (TLE):
1 14192U 83070E   15178.90372498 -.00000662  00000-0  00000+0 0  9993
2 14192 067.2118 156.1030 6866068 018.8219 039.1381 02.03135672158210

Source of the keplerian elements: AFSPC

N2YO: 265